USA 40 R/B DEB, 23353

Orbit data source: Space-Track

USA 40 R/B DEB, 23353 is space debris originally from a launch on Tue, 08 Aug 1989 UTC launched from the Air Force Eastern Test Range (AFETR). Debris objects in space refer to the collection of defunct objects orbiting the Earth. Examples of debris include non-operational satellites, rocket bodies, and fragments generated from explosions, collisions, or faulty payload assembly.

Loading next visibility...
Identifier
23353, 1989-061Z
Orbit
Active
Country
Flag of USUS
Related business
Manufacturer
Unknown
Mission
Spacecraft
Bus & Motor
Unknown
Mass
Unknown
Launch date (UTC)
1989-08-08 (37 years ago)
Launch vehicle
Unknown
Launch site
Air Force Eastern Test Range (AFETR)
Object type
Payload
Rocket body
Debris
Shape & HBR
Unknown shape, 0.1 m
Radar Cross Section
Small (<0.1 m²)

Expand to show TLE details & history
Last TLE update: 21 hours ago

TLE from 21 hours ago
0 USA 40 R/B DEB
1 23353U 89061Z   26093.68276046  .00006045  00000-0  49914-2 0  9993
2 23353  56.9518 196.2905 2823025  73.4832 315.4737  9.18626535 65964
Epoch: 2026-04-03T16:23Z
TLE epoch observation values (Epoch: 2026-04-03T16:23:10.503Z)
Latitude
-0.00008°
Longitude
118.48331°
Altitude
1,823.849 km
Speed
7.472 km/s
True Right ascension
13h 05m 09s
True Declination
0° 00' 00"
Sunlit
Object was in full shadow at epoch
Visualization orbit readout
Latitude
Unknown
Longitude
Unknown
Altitude
Unknown
Speed
Unknown
Apparent Right ascension
Unknown
Apparent Declination
Unknown
Sunlit
N/A
Visualization observer readout
Local Sidereal Time
19:17:05
Azimuth
Unknown
Elevation
Unknown
Doppler factor
Unknown
Orbital elements
Apogee altitude
5,970.547 km
Perigee altitude
533.352 km
Semi-major axis
9,630.087 km
Eccentricity
0.2823
Inclination
56.9518°
RAAN
196.2905°
Arg. of periapsis
73.4832°
True anomaly
286.60614°
Mean anomaly
315.4737°
Eccentric anomaly
301.71415°
Mean motion
2.29667 °/min
Orbital period
156.75 mins
BSTAR
0.0049914
Loading maneuver chart data...
Computing Atmospheric mass density...
Loading historical data...
Loading historical data...
Loading historical data...
Loading historical data...
Loading historical data...
Loading historical data...
Loading historical data...

Documentation

Showing up to 5 results
|